Spokane, WA
on Sunday, February 24, 2013

Sunday
Previous Day Next Day
Daily Summary
 ActualAverageRecord
Temperature
Mean Temperature °F / °C 34°F / 1°C  
Max Temperature 38°F / 3°C 42°F / 6°C 59°F / 15°C (1995)
Min Temperature 24°F / -4°C 27°F / -3°C 3°F / -16°C (2011)
Degree Days
Heating Degree Days 34 30  
Month to date heating degree days 754 776  
Since 1 July heating degree days 4422 4709  
Cooling Degree Days 0 0  
Month to date cooling degree days 0 0  
Year to date cooling degree days 0 0  
Moisture
Dew Point 25°F / -4°C   
Average Humidity 78    
Maximum Humidity 92    
Minimum Humidity 64    
Precipitation
Precipitation 0.00 in / 0.00 cm 0.05 in / 1.27 cm 0.66 in / 1.68 cm (1914)
Month to date precipitation 0.46 1.13  
Year to date precipitation 2.09 2.92  
Snow
Snow 0.00 in / 0.00 cm 0.20 in / 0.51 cm 5.40 in / 13.72 cm (2011)
Month to date snowfall 2.9 6.0  
Since 1 July snowfall 41.1 39.5  
Snow Depth 0.00 in / 0.00 cm   
Wind
Wind Speed 9 mph / 14 km/h   
Max Wind Speed 18 mph / 29 km/h   
Max Gust Speed 23 mph / 37 km/h   
Visibility 10 miles / 16 kilometers   
Events     

Key: T is trace of precipitation, MM is missing value
Source: NWS Daily Summary
Time(PST)TemperatureDew PointHumidity Pressure Visibility Wind DirectionWind SpeedGust SpeedPrecipitationEvents Conditions
12:53 AM 27.0°F / -2.8°C 21.9°F / -5.6°C 81% 30.25 in / 1024.2 hPa 10.0 miles / 16.1 kilometers SSE 6.9 mph / 11.1 km/h - N/A   Partly Cloudy
1:53 AM 28.0°F / -2.2°C 23.0°F / -5.0°C 81% 30.26 in / 1024.5 hPa 10.0 miles / 16.1 kilometers SSW 8.1 mph / 13.0 km/h - N/A   Clear
2:53 AM 27.0°F / -2.8°C 23.0°F / -5.0°C 85% 30.26 in / 1024.6 hPa 10.0 miles / 16.1 kilometers South 9.2 mph / 14.8 km/h - N/A   Partly Cloudy
3:53 AM 27.0°F / -2.8°C 23.0°F / -5.0°C 85% 30.27 in / 1025.0 hPa 10.0 miles / 16.1 kilometers South 5.8 mph / 9.3 km/h - N/A   Partly Cloudy
4:29 AM 26.6°F / -3.0°C 23.0°F / -5.0°C 86% 30.22 in / 1023.2 hPa 10.0 miles / 16.1 kilometers South 5.8 mph / 9.3 km/h - N/A   Scattered Clouds
4:53 AM 25.0°F / -3.9°C 23.0°F / -5.0°C 92% 30.28 in / 1025.2 hPa 10.0 miles / 16.1 kilometers SSE 8.1 mph / 13.0 km/h - N/A   Partly Cloudy
5:53 AM 25.0°F / -3.9°C 21.9°F / -5.6°C 88% 30.30 in / 1026.0 hPa 10.0 miles / 16.1 kilometers SSW 9.2 mph / 14.8 km/h - N/A   Partly Cloudy
6:53 AM 24.1°F / -4.4°C 21.9°F / -5.6°C 91% 30.31 in / 1026.2 hPa 10.0 miles / 16.1 kilometers SSE 5.8 mph / 9.3 km/h - N/A   Scattered Clouds
7:53 AM 26.1°F / -3.3°C 24.1°F / -4.4°C 92% 30.32 in / 1026.7 hPa 10.0 miles / 16.1 kilometers South 8.1 mph / 13.0 km/h - N/A   Mostly Cloudy
8:53 AM 28.9°F / -1.7°C 25.0°F / -3.9°C 85% 30.32 in / 1026.8 hPa 10.0 miles / 16.1 kilometers South 8.1 mph / 13.0 km/h - N/A   Mostly Cloudy
9:53 AM 32.0°F / 0.0°C 25.0°F / -3.9°C 75% 30.33 in / 1027.0 hPa 10.0 miles / 16.1 kilometers SSW 16.1 mph / 25.9 km/h 21.9 mph / 35.2 km/h N/A   Mostly Cloudy
10:53 AM 34.0°F / 1.1°C 27.0°F / -2.8°C 75% 30.33 in / 1027.1 hPa 10.0 miles / 16.1 kilometers SSW 15.0 mph / 24.1 km/h - N/A   Mostly Cloudy
11:53 AM 36.0°F / 2.2°C 27.0°F / -2.8°C 70% 30.32 in / 1026.8 hPa 10.0 miles / 16.1 kilometers SSW 15.0 mph / 24.1 km/h - N/A   Mostly Cloudy
12:53 PM 37.0°F / 2.8°C 26.1°F / -3.3°C 65% 30.31 in / 1026.2 hPa 10.0 miles / 16.1 kilometers South 13.8 mph / 22.2 km/h - N/A   Overcast
1:53 PM 37.9°F / 3.3°C 27.0°F / -2.8°C 65% 30.29 in / 1025.5 hPa 10.0 miles / 16.1 kilometers SW 15.0 mph / 24.1 km/h - N/A   Mostly Cloudy
2:53 PM 37.0°F / 2.8°C 26.1°F / -3.3°C 65% 30.27 in / 1025.1 hPa 10.0 miles / 16.1 kilometers SSW 8.1 mph / 13.0 km/h - N/A   Mostly Cloudy
3:53 PM 37.0°F / 2.8°C 26.1°F / -3.3°C 65% 30.27 in / 1025.0 hPa 10.0 miles / 16.1 kilometers SSW 9.2 mph / 14.8 km/h - N/A   Overcast
4:53 PM 37.0°F / 2.8°C 26.1°F / -3.3°C 65% 30.25 in / 1024.2 hPa 10.0 miles / 16.1 kilometers SSE 4.6 mph / 7.4 km/h - N/A   Mostly Cloudy
5:53 PM 35.1°F / 1.7°C 26.1°F / -3.3°C 70% 30.23 in / 1023.6 hPa 10.0 miles / 16.1 kilometers SE 3.5 mph / 5.6 km/h - N/A   Mostly Cloudy
6:53 PM 34.0°F / 1.1°C 27.0°F / -2.8°C 75% 30.22 in / 1023.3 hPa 10.0 miles / 16.1 kilometers SSE 4.6 mph / 7.4 km/h - N/A   Scattered Clouds
7:53 PM 33.1°F / 0.6°C 27.0°F / -2.8°C 78% 30.20 in / 1022.6 hPa 10.0 miles / 16.1 kilometers South 5.8 mph / 9.3 km/h - N/A   Overcast
8:53 PM 34.0°F / 1.1°C 26.1°F / -3.3°C 73% 30.16 in / 1021.3 hPa 10.0 miles / 16.1 kilometers SSE 6.9 mph / 11.1 km/h - N/A   Overcast
9:53 PM 34.0°F / 1.1°C 26.1°F / -3.3°C 73% 30.14 in / 1020.6 hPa 10.0 miles / 16.1 kilometers SSE 6.9 mph / 11.1 km/h - N/A   Overcast
10:53 PM 33.1°F / 0.6°C 26.1°F / -3.3°C 75% 30.10 in / 1019.3 hPa 10.0 miles / 16.1 kilometers SSE 5.8 mph / 9.3 km/h - N/A   Overcast
11:53 PM 33.1°F / 0.6°C 26.1°F / -3.3°C 75% 30.07 in / 1018.3 hPa 10.0 miles / 16.1 kilometers SE 6.9 mph / 11.1 km/h - N/A   Overcast
Moon Phase
Feb. 24 Feb. 25 Mar. 04 Mar. 11 Mar. 19
Sunrise:06:39 AM (PST) Moon Rise:04:44 PM (PST)2/24
Sunset:05:27 PM (PST) Moon Set:05:40 AM (PST)2/24

Copyright © 2014 The Weather Underground, Inc.